sat.trackr.live / text

‹ back to catalog

STARLINK-37057

NORAD 68161 · 2026-049V

PAYLOAD ACTIVE UNKNOWN

§ Identity

Operator
Country
US
Launch date
2026-03-13
Launch site
AFWTR
Launch vehicle
Mass (kg)
RCS (m²)

Purposes: comms

External: N2YO · Heavens-Above · Gunter

§ Orbital elements

Epoch: 2026-09-20T01:50:24.319104Z

Period
93.91 min
Inclination
97.2860°
Eccentricity
0.0000725
Mean motion
15.33453673 rev/d
Perigee alt
465.0 km
Apogee alt
466.0 km
Semi-major
6,843.7 km
B*
2.8762e-4
RAAN
283.0029°
Arg perigee
69.9552°
Mean anomaly
290.1769°
Rev number
2,943

§ Raw data

STARLINK-370571 68161U 26049V   26263.07667036  .00009224  00000+0  28762-3 0  99912 68161  97.2860 283.0029 0000725  69.9552 290.1769 15.33453673 29432

JSON: /api/v1/satellites/68161 · /tle

For live sub-satellite position, see the globe view (requires WebGL).

§ Visibility from observer

Set your observer location to see the next 7 days of passes ≥ 10°. The values pass through the URL so the page stays shareable.

No JS? Fill the form by hand. The geolocation button needs JavaScript.